Location: Newark
(35.6799°N, 139.7636°E)
Time: 03:21:07
(UTC+00:00)

Explorer 11/Cluster Stage 4 - Pass Details

Date: 17 December 2019
Orbit: 467 x 1259 km, 28.8° (Epoch: 21 January)

Event Time Altitude Azimuth Distance (km) Brightness Sun altitude
Rises 19:19:33 0° 205° (SSW) 4,030 10.1 -28.6°
Reaches altitude 10° 19:23:34 10° 186° (S) 3,158 9.7 -27.8°
Maximum altitude 19:28:16 17° 150° (SSE) 2,734 9.7 -26.9°
Drops below altitude 10° 19:33:02 10° 114° (ESE) 3,226 10.7 -25.9°
Sets 19:37:10 0° 95° (E) 4,156 11.6 -25.1°
